Location: Brabourne
(51.1333°N, 1.0000°E)
Time: 12:30:34
(UTC+00:00)

Cosmos 1825 Rocket - Pass Details

Date: 22 October 2021
Orbit: 603 x 631 km, 82.5° (Epoch: 26 November)

Event Time Altitude Azimuth Distance (km) Brightness Sun altitude
Rises 17:32:50 0° 4° (N) 2,882 6.9 -7.6°
Reaches altitude 10° 17:36:32 10° 37° (NE) 1,966 5.7 -8.2°
Maximum altitude 17:38:10 12° 59° (ENE) 1,843 5.4 -8.4°
Enters shadow 17:39:17 11° 75° (ENE) 1,899 5.4 -8.6°
